User: anonymous   Login
Location: Ivrea
(45.4365°N, 7.8791°E)
Time: 18:28:40
(UTC+01:00)
Language:

BlueWalker 3 - Orbit

View from above orbital plane
View from above orbital plane
View from above satellite
View from above satellite

Ground track
Ground track

The orbit data is extracted from the following two-line orbital elements,

1 53807U 22111AL  25344.88001161  .00009223  00000-0  27131-3 0  9996
2 53807  53.2290 196.4551 0005018 330.8021  29.2702 15.35824638181241
Epoch (UTC): 10 December 2025 21:07:13
Eccentricity: 0.0005018
inclination: 53.2290°
perigee height: 455 km
apogee height: 462 km
right ascension of ascending node: 196.4551°
argument of perigee: 330.8021°
revolutions per day: 15.35824638
mean anomaly at epoch: 29.2702°
orbit number at epoch: 18124

The dashed part of the orbit path shows where the satellite is in the earth's shadow,  

DLR